Regional Weather Roundup
Issued by NWS

Home | Current Version | Previous Version | Graphics & Text | Print | Product List | Glossary On
Versions: 1 2 3 4 5 6 7 8 9 10 11 12 13 14 15 16 17 18 19 20 21 22 23 24 25 26 27 28 29 30 31 32 33 34 35 36 37 38 39 40 41 42 43 44 45 46 47 48 49 50
000
ASUS45 KSLC 290310
RWRUT

UTAH REGIONAL WEATHER ROUNDUP
NATIONAL WEATHER SERVICE SALT LAKE CITY UT
900 PM MDT TUE JUL 28 2015

UTZ001>011-023>025-290400-

NORTHERN UTAH

CITY           SKY/WX    TMP DP  RH WIND       PRES   REMARKS
BRIGHAM CITY   CLEAR     73  24  16 CALM      30.22R
HILL AFB       CLEAR     69  29  22 NW5       30.23S
LOGAN          CLEAR     66  41  40 W6        30.23R
OGDEN          CLEAR     68  30  24 NW5       30.21S
PROVO AIRPORT  NOT AVBL
SALT LAKE CITY CLEAR     73  23  15 NW10      30.20R
VERNAL         CLEAR     72  21  14 N8        30.18R
WENDOVER       CLEAR     73  19  13 E6        30.21S
HEBER CITY     CLEAR     66  28  24 CALM      30.25R
WEST JORDAN    CLEAR     68  36  30 NW7       30.23R

$$

UTZ012>022-026-027-290400-

SOUTHERN/CENTRAL UTAH

CITY           SKY/WX    TMP DP  RH WIND       PRES   REMARKS
BLANDING       CLEAR     74  29  19 N7        30.23R
BRYCE CANYON   CLEAR     69  29  22 NW12      30.31R
CEDAR CITY     CLEAR     73  25  16 NE8       30.18R
DELTA          CLEAR     75  22  13 N13G20    30.17S
HANKSVILLE     CLEAR     81  28  15 NE8       30.06R
MILFORD        CLEAR     76  26  15 N13       30.15R
MOAB/CYNLANDS  CLEAR     80  26  13 W5        30.04S
PRICE          CLEAR     73  23  15 N9        30.22R
ST GEORGE      CLEAR     93  30  10 W7        29.94R
KANAB          CLEAR     79  30  17 CALM      30.14R

$$

REGIONAL REPORTS     COLORADO/ARIZONA

CITY           SKY/WX    TMP DP  RH WIND       PRES   REMARKS
CRAIG, CO      CLEAR     67  31  26 CALM      30.25R
GRAND JUNCTION PTCLDY    77  25  14 NW8       30.08R
RIFLE          PTCLDY    75  30  19 W5        30.16R
MONTROSE       PTCLDY    75  38  26 W6        30.17R
CORTEZ         CLEAR     70  35  27 SW7       30.16R
PAGE, AZ       CLEAR     87  28  12 SE3       30.01R
GRAND CANYON   CLEAR     65  22  19 CALM      30.23R
KINGMAN        CLEAR     88  29  12 SW7       29.99R
FLAGSTAFF      MOCLDY    72  41  32 SW3       30.27R

$$

REGIONAL REPORTS    NEVADA/IDAHO/WYOMING

CITY           SKY/WX    TMP DP  RH WIND       PRES   REMARKS
LAS VEGAS, NV  CLEAR     99  25   7 NE10      29.82R HX  92
ELY            CLEAR     72  25  17 N14       30.23R
ELKO           CLEAR     75  16  10 NE6       30.20R
POCATELLO, ID  CLEAR     66  29  24 CALM      30.27S
BURLEY         CLEAR     64  31  28 E3        30.23S
EVANSTON, WY   CLEAR     59  23  25 N8        30.36R
ROCK SPRINGS   CLEAR     61  14  16 NW10      30.32R
KEMMERER       CLEAR     54  23  30 NW8       30.37R

$$


USA.gov is the U.S. government's official web portal to all federal, state and local government web resources and services.